Wind_Speed
58 55 52 47 42 38 38 47 46 43 22 22 32 14 26 27 25 20 16 25 24 23 17 19 13 9 7 5 4 4 4 3 3 2 1 1 2 3 2 3 4 5 7 8 5 5 5 5 5
58 59 55 46 45 41 48 55 55 53 29 27 33 18 31 37 36 30 35 29 27 22 20 21 17 13 13 11 8 7 6 6 5 1 3 2 2 2 3 3 4 6 6 6 6 5 4 5 5
59 59 58 49 46 45 55 53 57 40 30 27 34 15 36 37 39 35 35 28 23 18 18 20 20 17 15 15 14 14 11 8 6 3 3 4 4 3 4 4 5 6 6 7 6 4 4 5 4
59 59 56 53 52 53 57 54 52 40 33 29 32 28 36 41 40 41 38 37 30 28 26 21 24 21 21 18 16 17 16 13 10 9 7 7 10 5 5 7 8 8 8 6 5 4 5 6 5
58 57 56 54 52 56 61 54 53 43 36 34 46 38 34 45 42 45 39 37 34 33 31 28 29 26 26 26 22 20 19 17 16 16 16 14 12 9 6 8 8 7 6 6 5 6 6 7 8
56 58 57 60 59 60 66 55 54 49 45 45 44 32 37 43 45 45 40 40 43 37 30 31 29 29 30 27 28 25 24 23 21 19 20 19 16 11 10 10 9 8 8 7 4 5 6 7 7
64 61 64 63 64 68 67 58 61 56 53 48 43 32 39 46 46 45 41 43 41 38 34 32 33 28 32 28 27 27 27 27 24 23 17 17 16 13 14 13 13 12 11 9 8 8 8 6 7
67 65 68 72 71 80 66 60 54 56 56 59 53 41 42 51 49 49 43 44 48 39 36 39 35 32 31 31 29 29 31 29 27 22 20 17 18 14 15 17 17 16 15 14 14 11 9 8 8
70 66 71 79 78 71 64 61 58 55 61 65 56 49 44 45 52 52 51 44 51 48 39 41 39 37 35 33 36 35 36 34 31 28 23 19 20 17 14 18 21 20 20 19 18 17 14 12 11
69 70 75 80 77 70 63 59 60 64 64 67 60 54 48 51 53 57 57 50 50 57 46 41 42 39 39 38 36 36 36 36 32 31 26 22 24 21 19 15 20 23 24 22 23 21 18 15 15
74 72 85 74 72 69 69 74 69 70 75 70 67 60 56 57 58 60 62 59 54 55 58 51 46 45 43 42 40 38 38 37 32 30 27 29 29 26 24 20 17 20 22 24 24 24 23 20 17
73 77 80 71 70 74 73 75 78 79 71 71 73 71 64 62 64 61 65 64 60 58 58 58 51 48 50 47 45 43 44 40 34 33 34 33 34 32 28 26 22 20 19 19 23 23 24 22 21
73 79 79 74 78 83 78 74 75 83 82 72 73 74 70 67 67 70 67 70 66 60 59 59 60 52 56 52 48 47 46 43 39 40 36 36 37 37 33 32 29 25 23 20 22 23 24 25 24
77 80 81 79 75 77 77 79 83 82 79 79 76 75 73 71 68 68 71 70 72 67 62 62 62 59 61 59 53 51 48 46 44 41 40 42 38 42 39 37 34 30 29 26 22 24 26 25 26
80 81 81 81 79 78 79 85 88 86 82 82 81 82 79 74 73 74 74 75 73 74 69 65 65 67 60 64 62 59 60 56 52 44 42 42 41 38 42 40 36 35 33 31 29 25 25 26 26
85 85 83 81 82 83 85 91 92 88 85 88 88 89 86 84 77 75 79 82 83 82 77 73 69 68 67 63 67 67 63 58 54 50 48 48 46 42 44 44 40 37 37 35 34 32 28 28 28
88 86 87 89 88 87 86 91 89 89 89 89 90 88 87 85 85 80 88 89 92 91 88 80 76 70 72 68 68 70 69 63 59 56 56 54 52 48 48 47 44 40 40 39 38 38 34 32 30
78 80 82 84 83 85 90 93 88 89 90 88 89 91 91 90 91 92 88 92 87 86 88 84 78 77 75 77 71 69 71 68 66 63 62 59 57 55 50 48 48 44 43 41 39 40 40 37 31
75 74 71 72 76 78 80 81 86 89 94 97 94 94 95 93 94 91 92 93 94 89 90 89 85 80 81 77 75 75 70 72 73 72 68 66 63 60 56 56 54 51 49 45 42 41 42 40 35
55 59 63 67 70 69 66 64 66 71 79 89 95 95 96 96 93 94 92 92 97 96 94 91 90 88 81 83 83 76 72 69 66 68 70 69 67 62 61 61 58 57 54 48 43 43 41 41 37
43 47 50 51 51 51 50 51 55 60 66 71 81 88 88 91 89 90 94 93 98 102 101 95 92 92 91 78 75 89 84 76 69 64 63 65 67 68 63 64 64 60 58 56 50 45 42 42 40
35 37 40 42 44 45 45 47 54 56 59 62 65 75 80 82 85 87 89 91 95 106 107 103 95 95 94 95 82 81 91 86 81 77 71 66 67 70 71 69 69 67 64 62 60 55 50 45 47
32 33 35 36 36 38 41 43 50 56 58 60 63 66 68 73 78 83 86 88 95 101 110 108 104 99 97 97 99 90 80 88 91 85 78 77 74 74 76 77 76 73 72 69 67 63 61 57 55
32 34 36 38 40 43 47 49 56 60 62 61 61 62 65 70 75 79 81 84 90 98 105 110 108 104 103 100 99 95 95 83 79 87 84 76 72 72 77 85 86 81 79 79 75 71 67 66 64
37 39 40 43 44 47 49 53 59 64 65 63 62 63 62 63 71 75 80 82 85 90 99 102 108 108 105 103 102 84 92 97 92 80 80 73 64 62 76 75 75 78 84 83 79 77 74 75 74
39 41 42 44 45 48 50 50 55 62 61 60 58 59 61 59 60 66 77 79 81 84 89 98 101 105 106 105 107 104 92 92 89 94 80 69 47 67 68 75 83 81 79 78 81 78 79 80 81
39 40 42 43 45 44 44 45 50 56 52 48 49 51 55 58 61 62 67 76 78 82 83 88 93 99 108 108 109 111 111 99 89 86 86 70 76 65 71 85 89 92 89 89 86 80 79 83 84
40 40 40 40 40 40 40 41 43 49 51 46 44 42 44 51 62 65 66 70 75 79 82 84 87 93 96 110 113 114 115 112 107 89 89 92 88 71 52 70 77 92 91 90 88 88 85 83 79
39 39 38 38 38 39 38 39 39 41 48 44 37 36 37 42 49 58 68 72 76 82 82 82 84 87 91 96 111 116 118 117 116 110 99 91 102 102 88 87 81 70 74 81 92 99 99 90 86
36 36 36 36 36 36 38 38 32 30 35 38 34 29 32 37 45 51 57 64 74 82 84 84 82 84 89 90 98 111 120 120 121 120 116 113 97 99 103 92 73 75 63 60 76 93 95 104 105
Wind_Direction
242 242 242 242 246 246 247 250 252 252 248 238 239 230 175 189 173 198 239 230 242 251 257 257 247 234 232 253 248 233 241 221 227 240 262 357 31 39 29 10 351 349 352 344 344 342 329 330 342
243 241 241 240 239 241 239 242 243 250 244 248 253 211 188 196 189 213 235 240 234 244 249 258 249 240 237 225 224 233 247 253 248 298 303 294 11 8 326 326 323 325 330 324 323 311 322 316 324
240 242 241 236 236 235 241 244 248 252 254 255 267 241 200 211 198 217 227 225 229 228 243 255 251 238 230 224 227 239 236 234 237 264 329 356 313 329 321 305 303 311 307 301 297 298 297 301 307
246 241 242 238 236 236 244 246 252 250 248 249 265 248 206 215 205 218 223 232 247 243 250 251 243 243 236 234 219 235 243 246 255 273 304 321 337 299 300 301 299 306 302 301 283 289 277 270 282
244 246 238 240 235 236 240 243 246 244 241 242 238 247 218 213 210 216 232 233 235 240 239 238 245 247 236 237 236 229 244 243 254 265 283 295 310 280 272 290 304 310 305 294 277 279 267 264 269
240 237 238 236 237 237 238 234 239 241 238 236 240 242 231 223 221 216 231 235 236 243 243 240 242 250 237 239 244 239 243 251 261 264 276 283 291 287 251 267 282 298 301 294 292 278 272 264 267
234 237 232 233 233 233 241 238 240 238 236 235 246 235 230 239 226 217 230 235 236 244 246 244 240 242 237 234 241 243 247 247 257 267 274 278 283 295 253 253 262 280 283 289 284 286 288 282 272
230 223 228 227 228 229 230 240 242 244 241 242 238 232 224 237 234 222 225 229 233 238 248 240 237 239 241 227 240 244 253 250 255 261 270 281 279 288 276 252 257 264 271 278 281 284 279 272 278
238 238 233 222 223 230 231 233 233 238 239 241 239 237 230 233 248 232 229 230 230 231 237 242 240 241 239 240 238 249 254 256 250 253 262 280 276 281 293 267 256 259 262 267 271 274 275 273 277
236 236 239 238 231 227 225 228 229 232 235 238 239 238 234 223 234 243 231 235 233 234 231 241 240 240 239 239 241 248 250 254 258 255 253 268 273 278 280 290 273 264 260 260 263 266 270 272 270
235 237 238 238 239 242 238 236 236 233 235 237 241 235 233 237 228 235 236 231 235 235 232 233 242 241 240 241 243 243 243 249 250 252 260 274 271 274 278 280 288 275 270 265 263 260 264 270 267
240 242 241 241 245 246 240 236 236 236 241 241 239 239 232 234 233 231 234 233 232 234 233 233 234 243 241 240 240 247 243 246 248 250 264 262 265 274 276 275 278 285 273 270 266 268 264 264 266
243 243 245 244 243 245 246 245 241 239 238 244 239 238 238 231 235 234 233 230 229 236 238 233 235 233 241 241 243 244 247 246 255 258 257 261 269 270 271 273 272 276 281 278 271 268 267 265 264
236 237 240 241 241 245 248 248 246 243 242 245 245 241 239 239 236 237 235 236 230 232 232 234 233 237 232 242 242 244 248 248 255 255 255 258 264 268 272 272 268 272 273 280 279 275 265 266 266
239 241 241 243 243 246 250 251 249 248 249 246 250 246 241 240 239 238 238 235 235 232 236 233 232 232 236 232 236 239 246 249 250 250 249 254 260 266 269 267 266 268 270 273 278 280 279 268 263
243 243 244 245 246 245 248 249 250 250 249 247 247 249 247 243 242 241 240 236 234 230 229 235 233 232 232 233 235 235 238 245 247 249 250 254 256 261 265 269 266 269 270 272 276 277 280 278 268
244 247 247 247 248 249 248 250 250 251 249 247 245 244 246 244 244 237 237 237 231 231 227 228 233 234 233 232 235 236 239 241 244 247 249 251 255 258 263 266 266 269 272 273 275 279 280 278 277
242 244 246 249 250 251 251 248 250 252 251 248 248 246 244 244 241 240 236 239 240 235 234 229 233 236 234 233 234 242 240 243 245 246 249 250 252 256 258 261 264 266 272 272 272 273 277 281 283
242 245 249 252 253 253 253 252 249 249 250 250 247 247 247 245 244 240 241 237 238 236 236 233 231 237 241 237 236 240 244 242 245 247 247 251 252 255 256 259 262 264 267 270 270 270 274 277 278
238 241 242 244 247 250 252 251 252 250 248 247 247 245 246 246 243 240 239 238 234 239 235 234 231 232 239 244 243 241 241 240 242 246 249 250 254 256 258 259 261 264 267 269 270 272 271 272 272
236 242 245 249 252 253 254 254 253 252 252 248 244 246 243 245 244 241 239 237 234 234 238 234 232 231 232 237 249 247 244 243 240 246 248 248 249 253 253 257 260 261 265 267 265 267 267 269 270
237 240 245 249 253 257 256 258 258 257 255 256 252 246 246 244 243 242 240 240 236 235 235 238 234 232 231 231 235 247 250 246 246 241 243 247 251 253 257 256 260 263 263 264 265 265 262 263 268
236 243 248 253 258 263 265 263 264 265 262 258 257 253 247 247 244 242 239 240 237 237 237 235 235 233 232 231 230 237 246 251 250 250 249 251 251 253 258 260 261 263 265 265 267 266 265 264 266
246 250 255 258 262 264 265 266 268 267 267 265 264 258 251 248 244 243 243 239 239 237 238 237 237 235 234 232 231 231 238 244 247 250 252 257 262 264 264 266 265 262 262 264 265 266 267 267 266
256 258 261 264 267 268 269 270 269 269 269 268 266 265 261 250 246 246 243 240 237 239 237 238 237 237 236 236 235 231 233 240 243 245 241 247 255 266 269 267 267 266 263 262 264 266 265 265 266
264 266 267 267 266 268 270 276 277 276 274 273 269 265 262 259 250 242 246 244 240 238 238 238 238 236 237 235 238 237 233 234 241 243 242 233 246 263 263 264 262 260 267 268 266 262 263 263 268
268 270 274 278 280 282 284 286 287 288 285 276 267 261 254 249 247 243 238 242 242 240 238 238 238 236 234 235 233 237 239 235 238 239 238 236 232 252 256 261 260 266 269 269 269 271 267 267 267
272 276 279 282 285 286 288 293 298 293 291 288 281 272 260 250 242 239 237 234 238 240 240 238 238 238 235 233 233 234 236 239 239 234 234 229 225 230 233 250 261 263 261 263 267 269 267 268 263
275 278 282 286 288 292 296 301 306 299 297 297 293 283 268 254 244 241 237 233 232 236 238 238 238 240 238 234 233 233 236 236 238 239 234 230 229 234 230 239 246 256 263 272 273 276 271 268 265
277 281 285 288 291 295 301 307 308 306 307 305 303 286 266 251 244 238 237 236 234 230 234 239 238 237 241 238 235 234 233 236 238 238 238 236 231 231 233 233 250 250 269 255 273 266 263 269 264
Height
10820 10827 10835 10845 10851 10855 10854 10845 10847 10848 10863 10862 10858 10871 10878 10878 10874 10878 10875 10880 10885 10890 10889 10892 10893 10894 10895 10897 10898 10898 10898 10898 10898 10897 10897 10897 10897 10898 10898 10897 10897 10897 10896 10896 10895 10895 10895 10895 10893
10809 10818 10828 10837 10842 10846 10838 10831 10827 10838 10857 10856 10850 10869 10870 10869 10874 10874 10876 10880 10883 10885 10887 10890 10891 10892 10894 10895 10898 10898 10898 10898 10897 10897 10897 10897 10897 10897 10898 10898 10897 10897 10896 10895 10895 10895 10895 10894 10893
10800 10807 10817 10828 10835 10832 10821 10826 10825 10847 10854 10856 10848 10866 10866 10865 10872 10874 10875 10879 10880 10881 10885 10888 10889 10890 10891 10893 10896 10897 10897 10897 10897 10897 10897 10896 10897 10897 10897 10897 10897 10896 10896 10895 10895 10895 10895 10894 10893
10792 10801 10808 10818 10824 10819 10815 10824 10826 10843 10849 10853 10848 10853 10863 10862 10866 10868 10869 10874 10875 10878 10881 10884 10885 10888 10890 10891 10893 10895 10895 10896 10896 10896 10896 10895 10896 10896 10896 10896 10896 10895 10895 10895 10895 10895 10895 10894 10893
10787 10790 10804 10805 10811 10809 10807 10821 10822 10834 10843 10843 10837 10844 10855 10854 10861 10865 10866 10871 10872 10874 10877 10880 10882 10884 10887 10889 10891 10892 10893 10894 10894 10895 10895 10895 10895 10895 10895 10895 10895 10894 10894 10894 10894 10894 10894 10893 10893
10779 10786 10792 10797 10798 10794 10791 10812 10815 10823 10829 10827 10836 10846 10849 10851 10856 10864 10864 10867 10868 10870 10872 10875 10877 10880 10884 10886 10887 10888 10889 10891 10892 10892 10893 10893 10894 10894 10894 10894 10894 10894 10894 10894 10894 10894 10893 10892 10891
10767 10777 10782 10786 10789 10780 10784 10808 10802 10812 10817 10824 10825 10841 10842 10840 10847 10856 10858 10859 10862 10864 10867 10870 10873 10877 10880 10882 10884 10885 10886 10887 10889 10890 10890 10891 10891 10891 10891 10892 10893 10893 10893 10894 10893 10893 10892 10891 10890
10757 10768 10772 10775 10774 10757 10786 10792 10808 10808 10813 10809 10818 10830 10835 10832 10837 10847 10852 10852 10854 10859 10861 10864 10868 10872 10875 10878 10879 10881 10882 10884 10886 10887 10888 10888 10889 10889 10889 10889 10889 10890 10891 10891 10891 10891 10891 10890 10888
10746 10760 10760 10753 10753 10771 10790 10795 10799 10797 10797 10789 10808 10823 10831 10837 10833 10841 10846 10846 10846 10851 10855 10858 10863 10866 10869 10872 10874 10876 10877 10879 10882 10883 10885 10885 10886 10887 10886 10886 10886 10887 10888 10888 10888 10888 10888 10888 10887
10735 10741 10736 10744 10758 10768 10782 10787 10790 10788 10781 10781 10798 10807 10823 10823 10822 10823 10834 10838 10839 10842 10850 10852 10855 10859 10862 10865 10868 10870 10871 10874 10877 10879 10881 10882 10883 10884 10884 10883 10883 10883 10883 10884 10884 10884 10884 10885 10885
10719 10723 10716 10742 10751 10757 10765 10770 10773 10766 10768 10772 10781 10795 10807 10810 10809 10812 10816 10827 10830 10832 10840 10843 10846 10851 10855 10857 10860 10863 10866 10869 10872 10874 10876 10877 10878 10880 10881 10881 10880 10879 10879 10879 10879 10879 10880 10880 10881
10707 10708 10713 10736 10738 10735 10742 10748 10754 10752 10760 10762 10770 10773 10787 10797 10796 10802 10805 10813 10821 10822 10826 10834 10837 10841 10845 10849 10852 10855 10857 10862 10865 10868 10870 10871 10872 10874 10875 10877 10877 10876 10875 10875 10875 10875 10875 10875 10876
10693 10696 10699 10716 10710 10710 10726 10735 10735 10738 10748 10752 10756 10758 10771 10784 10785 10791 10794 10798 10807 10815 10818 10823 10826 10831 10836 10840 10844 10847 10849 10852 10858 10860 10862 10865 10866 10868 10869 10870 10871 10871 10871 10871 10870 10870 10869 10869 10870
10670 10676 10681 10690 10708 10703 10709 10714 10718 10725 10734 10739 10742 10752 10759 10771 10780 10786 10788 10792 10796 10801 10804 10809 10817 10819 10826 10830 10837 10837 10840 10844 10848 10851 10855 10857 10859 10860 10862 10863 10864 10865 10865 10865 10865 10865 10864 10864 10864
10657 10663 10672 10680 10692 10697 10697 10693 10700 10708 10720 10727 10725 10733 10743 10752 10762 10769 10773 10780 10782 10787 10791 10794 10799 10807 10813 10819 10825 10830 10831 10835 10839 10842 10846 10849 10851 10852 10853 10855 10857 10858 10858 10859 10858 10858 10858 10858 10858
10643 10650 10661 10667 10670 10678 10679 10674 10680 10697 10706 10711 10716 10722 10733 10741 10748 10753 10758 10762 10759 10762 10772 10780 10788 10794 10802 10810 10812 10819 10822 10826 10829 10833 10837 10839 10842 10843 10845 10846 10849 10850 10850 10851 10852 10852 10852 10852 10851
10630 10638 10641 10646 10655 10660 10666 10660 10673 10678 10686 10693 10699 10704 10709 10717 10722 10731 10731 10723 10730 10742 10750 10764 10774 10784 10790 10794 10799 10806 10812 10817 10820 10824 10827 10830 10832 10834 10836 10838 10841 10842 10842 10844 10843 10843 10845 10846 10846
10614 10621 10623 10633 10643 10643 10640 10652 10661 10663 10666 10673 10678 10684 10688 10693 10699 10705 10714 10725 10738 10750 10756 10766 10769 10771 10775 10781 10789 10793 10803 10807 10810 10813 10815 10819 10822 10825 10827 10830 10832 10834 10834 10834 10836 10836 10835 10838 10840
10603 10610 10618 10619 10624 10622 10621 10636 10644 10644 10643 10644 10656 10660 10665 10671 10679 10691 10698 10709 10715 10727 10739 10753 10762 10765 10767 10774 10782 10788 10791 10798 10799 10802 10805 10806 10812 10814 10817 10820 10822 10824 10825 10827 10827 10828 10828 10828 10830
10594 10599 10603 10606 10605 10607 10614 10621 10622 10622 10620 10622 10627 10637 10642 10648 10660 10671 10678 10686 10700 10705 10713 10727 10744 10754 10759 10763 10768 10776 10779 10784 10788 10792 10797 10802 10801 10805 10807 10807 10811 10813 10815 10818 10819 10819 10819 10818 10821
10584 10588 10590 10592 10594 10596 10602 10606 10605 10603 10602 10605 10611 10613 10621 10629 10640 10650 10659 10666 10678 10682 10691 10703 10720 10733 10743 10752 10755 10759 10766 10771 10779 10783 10785 10788 10789 10788 10795 10795 10796 10801 10804 10806 10809 10809 10808 10807 10809
10576 10580 10582 10584 10586 10587 10591 10594 10588 10590 10591 10591 10595 10600 10604 10612 10619 10628 10637 10646 10654 10656 10666 10680 10699 10711 10722 10732 10739 10743 10748 10757 10761 10767 10770 10776 10778 10779 10780 10785 10786 10789 10793 10794 10794 10797 10797 10798 10796
10571 10573 10575 10577 10578 10579 10579 10581 10577 10574 10576 10579 10580 10581 10587 10592 10598 10603 10614 10623 10629 10634 10641 10656 10671 10688 10699 10709 10719 10726 10732 10739 10747 10751 10758 10762 10769 10771 10769 10770 10774 10778 10780 10781 10784 10785 10785 10787 10787
10564 10566 10567 10569 10570 10570 10568 10569 10563 10561 10560 10562 10564 10565 10570 10573 10577 10582 10589 10601 10605 10611 10616 10629 10647 10664 10677 10686 10697 10711 10715 10719 10728 10736 10748 10753 10760 10765 10764 10761 10759 10762 10763 10767 10768 10771 10772 10773 10773
10556 10558 10559 10559 10560 10560 10558 10554 10550 10544 10544 10546 10547 10547 10549 10555 10560 10566 10567 10574 10582 10587 10596 10609 10623 10637 10657 10671 10678 10691 10699 10703 10707 10716 10734 10745 10750 10750 10751 10751 10748 10745 10748 10753 10757 10756 10757 10756 10757
10547 10547 10548 10549 10550 10548 10545 10541 10534 10527 10527 10528 10527 10528 10529 10533 10539 10545 10548 10556 10564 10571 10579 10584 10599 10616 10633 10652 10660 10671 10677 10683 10689 10702 10722 10731 10730 10741 10737 10739 10739 10738 10733 10734 10736 10743 10743 10738 10740
10538 10538 10537 10536 10535 10533 10530 10526 10520 10511 10508 10507 10505 10505 10508 10512 10515 10521 10529 10535 10543 10551 10558 10567 10576 10589 10606 10621 10637 10645 10653 10666 10672 10683 10701 10705 10716 10723 10715 10719 10725 10724 10721 10722 10724 10725 10729 10726 10727
10528 10528 10527 10526 10524 10523 10520 10514 10509 10499 10492 10489 10486 10486 10489 10491 10494 10501 10509 10517 10524 10528 10536 10547 10554 10562 10579 10594 10606 10618 10627 10639 10648 10659 10668 10681 10685 10695 10705 10705 10714 10704 10702 10705 10708 10711 10712 10710 10712
10519 10518 10517 10515 10513 10510 10508 10504 10495 10488 10479 10476 10473 10471 10472 10474 10476 10481 10488 10497 10504 10508 10515 10525 10537 10544 10553 10569 10579 10592 10600 10609 10621 10633 10644 10650 10662 10667 10673 10676 10684 10686 10690 10692 10691 10689 10690 10695 10695
10510 10509 10507 10506 10504 10502 10497 10495 10490 10482 10473 10466 10462 10460 10457 10458 10459 10464 10470 10478 10484 10492 10500 10509 10516 10524 10531 10544 10554 10563 10574 10584 10594 10605 10614 10625 10632 10642 10650 10661 10664 10664 10676 10666 10670 10664 10671 10677 10674